Time,TemperatureF,DewpointF,PressureIn,WindDirection,WindDirectionDegrees,WindSpeedMPH,WindSpeedGustMPH,Humidity,HourlyPrecipIn,Conditions,Clouds,dailyrainin,SoftwareType,DateUTC
2013-03-02 00:02:00,48.7,49.0,30.22,NNE,30,1.0,3.0,99,0.00,,,0.00,weatherlink.com 1.10,2013-03-02 08:02:00,
2013-03-02 00:17:00,48.7,49.0,30.22,NNE,30,1.0,3.0,99,0.00,,,0.00,weatherlink.com 1.10,2013-03-02 08:17:00,
2013-03-02 00:33:00,48.6,48.0,30.22,NNE,30,0.0,1.0,99,0.00,,,0.00,weatherlink.com 1.10,2013-03-02 08:33:00,
2013-03-02 00:48:00,48.6,48.0,30.22,NNE,30,0.0,1.0,99,0.00,,,0.00,weatherlink.com 1.10,2013-03-02 08:48:00,
2013-03-02 01:03:00,48.5,48.0,30.21,NNE,30,0.0,1.0,99,0.00,,,0.00,weatherlink.com 1.10,2013-03-02 09:03:00,
2013-03-02 01:18:00,48.5,48.0,30.21,NNE,30,0.0,1.0,99,0.00,,,0.00,weatherlink.com 1.10,2013-03-02 09:18:00,
2013-03-02 01:33:00,48.5,48.0,30.21,NNE,30,0.0,0.0,99,0.00,,,0.00,weatherlink.com 1.10,2013-03-02 09:33:00,
2013-03-02 01:48:00,48.4,48.0,30.21,NNE,30,0.0,1.0,99,0.00,,,0.00,weatherlink.com 1.10,2013-03-02 09:48:00,
2013-03-02 02:03:00,48.3,48.0,30.21,NNE,30,0.0,0.0,99,0.00,,,0.00,weatherlink.com 1.10,2013-03-02 10:03:00,
2013-03-02 02:18:00,48.3,48.0,30.20,NNE,30,0.0,1.0,99,0.00,,,0.00,weatherlink.com 1.10,2013-03-02 10:18:00,
2013-03-02 02:33:00,48.4,48.0,30.19,NNE,30,0.0,1.0,99,0.00,,,0.00,weatherlink.com 1.10,2013-03-02 10:33:00,
2013-03-02 02:48:00,48.4,48.0,30.18,NNE,30,0.0,2.0,99,0.00,,,0.00,weatherlink.com 1.10,2013-03-02 10:48:00,
2013-03-02 03:03:00,48.2,48.0,30.18,NE,43,0.0,2.0,99,0.00,,,0.00,weatherlink.com 1.10,2013-03-02 11:03:00,
2013-03-02 03:18:00,48.1,48.0,30.17,South,177,0.0,4.0,99,0.00,,,0.00,weatherlink.com 1.10,2013-03-02 11:18:00,
2013-03-02 03:33:00,48.1,48.0,30.16,South,175,0.0,1.0,99,0.00,,,0.00,weatherlink.com 1.10,2013-03-02 11:33:00,
2013-03-02 03:48:00,48.1,48.0,30.16,ESE,109,0.0,2.0,99,0.00,,,0.00,weatherlink.com 1.10,2013-03-02 11:48:00,
2013-03-02 04:18:00,47.9,48.0,30.14,NE,50,0.0,2.0,99,0.00,,,0.00,weatherlink.com 1.10,2013-03-02 12:18:00,
2013-03-02 04:33:00,48.0,48.0,30.15,NE,50,0.0,1.0,99,0.00,,,0.00,weatherlink.com 1.10,2013-03-02 12:33:00,
2013-03-02 04:48:00,48.0,48.0,30.15,ESE,112,0.0,3.0,99,0.00,,,0.00,weatherlink.com 1.10,2013-03-02 12:48:00,
2013-03-02 05:03:00,48.1,48.0,30.14,ESE,115,0.0,2.0,99,0.00,,,0.00,weatherlink.com 1.10,2013-03-02 13:03:00,
2013-03-02 05:18:00,48.0,48.0,30.14,ESE,104,1.0,2.0,99,0.00,,,0.00,weatherlink.com 1.10,2013-03-02 13:18:00,
2013-03-02 05:33:00,48.0,48.0,30.13,NE,40,0.0,6.0,99,0.00,,,0.00,weatherlink.com 1.10,2013-03-02 13:33:00,
2013-03-02 05:48:00,48.0,48.0,30.11,NE,38,3.0,3.0,99,0.00,,,0.00,weatherlink.com 1.10,2013-03-02 13:48:00,
2013-03-02 06:03:00,47.9,48.0,30.12,NNE,25,0.0,2.0,99,0.00,,,0.00,weatherlink.com 1.10,2013-03-02 14:03:00,
2013-03-02 06:18:00,48.0,48.0,30.11,ESE,111,1.0,5.0,99,0.00,,,0.00,weatherlink.com 1.10,2013-03-02 14:18:00,
2013-03-02 06:33:00,48.0,48.0,30.11,NE,48,0.0,2.0,99,0.00,,,0.00,weatherlink.com 1.10,2013-03-02 14:33:00,
2013-03-02 06:48:00,48.0,48.0,30.10,North,7,1.0,3.0,99,0.00,,,0.00,weatherlink.com 1.10,2013-03-02 14:48:00,
2013-03-02 07:03:00,47.9,48.0,30.10,NE,51,1.0,3.0,99,0.00,,,0.00,weatherlink.com 1.10,2013-03-02 15:03:00,
2013-03-02 07:18:00,48.0,48.0,30.10,NNE,23,2.0,3.0,99,0.00,,,0.00,weatherlink.com 1.10,2013-03-02 15:18:00,
2013-03-02 07:33:00,48.0,48.0,30.10,NNW,345,0.0,4.0,99,0.00,,,0.00,weatherlink.com 1.10,2013-03-02 15:33:00,
2013-03-02 07:48:00,47.9,48.0,30.09,NNW,336,0.0,2.0,99,0.00,,,0.00,weatherlink.com 1.10,2013-03-02 15:48:00,
2013-03-02 08:03:00,47.9,48.0,30.09,NE,43,1.0,7.0,99,0.00,,,0.00,weatherlink.com 1.10,2013-03-02 16:03:00,
2013-03-02 08:18:00,48.1,48.0,30.08,SE,135,1.0,4.0,100,0.00,,,0.00,weatherlink.com 1.10,2013-03-02 16:18:00,
2013-03-02 08:33:00,48.2,48.0,30.08,West,278,0.0,3.0,100,0.00,,,0.00,weatherlink.com 1.10,2013-03-02 16:33:00,
2013-03-02 08:48:00,48.5,48.0,30.08,WNW,301,2.0,2.0,99,0.00,,,0.00,weatherlink.com 1.10,2013-03-02 16:48:00,
2013-03-02 09:03:00,48.8,49.0,30.07,WNW,286,1.0,3.0,100,0.00,,,0.00,weatherlink.com 1.10,2013-03-02 17:03:00,
2013-03-02 09:18:00,49.1,49.0,30.07,North,6,0.0,4.0,99,0.00,,,0.00,weatherlink.com 1.10,2013-03-02 17:18:00,
2013-03-02 09:33:00,49.3,49.0,30.07,WSW,246,1.0,3.0,100,0.00,,,0.00,weatherlink.com 1.10,2013-03-02 17:33:00,
2013-03-02 09:48:00,49.4,49.0,30.07,South,181,0.0,3.0,100,0.00,,,0.00,weatherlink.com 1.10,2013-03-02 17:48:00,
2013-03-02 10:18:00,49.7,50.0,30.06,NNW,340,0.0,2.0,100,0.00,,,0.00,weatherlink.com 1.10,2013-03-02 18:18:00,
2013-03-02 10:33:00,49.7,50.0,30.06,NE,44,1.0,3.0,99,0.00,,,0.00,weatherlink.com 1.10,2013-03-02 18:33:00,
2013-03-02 10:48:00,49.6,49.0,30.05,SSW,192,1.0,3.0,99,0.00,,,0.00,weatherlink.com 1.10,2013-03-02 18:48:00,
2013-03-02 11:04:00,49.8,50.0,30.05,North,2,2.0,4.0,99,0.00,,,0.00,weatherlink.com 1.10,2013-03-02 19:04:00,
2013-03-02 11:19:00,50.1,50.0,30.04,SE,129,0.0,3.0,99,0.00,,,0.00,weatherlink.com 1.10,2013-03-02 19:19:00,
2013-03-02 11:34:00,50.2,50.0,30.04,ESE,104,1.0,4.0,99,0.00,,,0.00,weatherlink.com 1.10,2013-03-02 19:34:00,
2013-03-02 11:49:00,50.4,50.0,30.04,WNW,290,0.0,3.0,99,0.00,,,0.00,weatherlink.com 1.10,2013-03-02 19:49:00,
2013-03-02 12:04:00,50.8,51.0,30.03,South,176,1.0,3.0,99,0.00,,,0.00,weatherlink.com 1.10,2013-03-02 20:04:00,
2013-03-02 12:19:00,51.1,51.0,30.03,South,185,0.0,2.0,99,0.00,,,0.00,weatherlink.com 1.10,2013-03-02 20:19:00,
2013-03-02 12:34:00,50.9,50.0,30.03,SSE,158,0.0,2.0,98,0.00,,,0.00,weatherlink.com 1.10,2013-03-02 20:34:00,
2013-03-02 12:49:00,49.7,49.0,30.03,ENE,68,1.0,5.0,96,0.00,,,0.00,weatherlink.com 1.10,2013-03-02 20:49:00,
2013-03-02 13:04:00,48.6,48.0,30.02,ENE,63,1.0,5.0,96,0.00,,,0.00,weatherlink.com 1.10,2013-03-02 21:04:00,
2013-03-02 13:34:00,47.7,46.0,30.03,West,263,4.0,5.0,95,0.00,,,0.00,weatherlink.com 1.10,2013-03-02 21:34:00,
2013-03-02 13:49:00,45.5,44.0,30.04,West,266,2.0,6.0,94,0.00,,,0.00,weatherlink.com 1.10,2013-03-02 21:49:00,
2013-03-02 14:03:00,45.0,44.0,30.04,West,266,1.0,3.0,96,0.00,,,0.00,weatherlink.com 1.10,2013-03-02 22:03:00,
2013-03-02 14:19:00,44.9,44.0,30.04,West,263,2.0,4.0,97,0.00,,,0.00,weatherlink.com 1.10,2013-03-02 22:19:00,
2013-03-02 14:34:00,44.9,44.0,30.05,West,274,2.0,4.0,97,0.00,,,0.00,weatherlink.com 1.10,2013-03-02 22:34:00,
2013-03-02 14:49:00,44.8,44.0,30.05,West,274,1.0,4.0,96,0.00,,,0.00,weatherlink.com 1.10,2013-03-02 22:49:00,
2013-03-02 15:04:00,44.8,44.0,30.05,SSW,198,0.0,6.0,97,0.00,,,0.00,weatherlink.com 1.10,2013-03-02 23:04:00,
2013-03-02 15:19:00,44.5,44.0,30.05,East,100,1.0,7.0,96,0.00,,,0.00,weatherlink.com 1.10,2013-03-02 23:19:00,
2013-03-02 15:34:00,44.2,43.0,30.05,SW,227,0.0,6.0,95,0.00,,,0.00,weatherlink.com 1.10,2013-03-02 23:34:00,
2013-03-02 15:49:00,44.1,43.0,30.05,SSE,162,3.0,6.0,96,0.00,,,0.00,weatherlink.com 1.10,2013-03-02 23:49:00,
2013-03-02 16:04:00,43.8,43.0,30.05,West,279,2.0,7.0,95,0.00,,,0.00,weatherlink.com 1.10,2013-03-03 00:04:00,
2013-03-02 16:19:00,43.6,42.0,30.05,WNW,287,0.0,5.0,95,0.00,,,0.00,weatherlink.com 1.10,2013-03-03 00:19:00,
2013-03-02 16:34:00,43.7,42.0,30.05,SW,216,0.0,3.0,95,0.00,,,0.00,weatherlink.com 1.10,2013-03-03 00:34:00,
2013-03-02 16:49:00,44.0,43.0,30.06,WNW,288,0.0,5.0,95,0.00,,,0.00,weatherlink.com 1.10,2013-03-03 00:49:00,
2013-03-02 17:04:00,44.6,43.0,30.06,SW,221,0.0,7.0,93,0.00,,,0.00,weatherlink.com 1.10,2013-03-03 01:04:00,
2013-03-02 17:19:00,44.8,42.0,30.07,NW,320,1.0,3.0,91,0.00,,,0.00,weatherlink.com 1.10,2013-03-03 01:19:00,
2013-03-02 17:34:00,45.2,42.0,30.07,WSW,258,3.0,4.0,88,0.00,,,0.00,weatherlink.com 1.10,2013-03-03 01:34:00,
2013-03-02 17:49:00,45.3,41.0,30.07,WSW,246,1.0,6.0,84,0.00,,,0.00,weatherlink.com 1.10,2013-03-03 01:49:00,
2013-03-02 18:04:00,45.0,41.0,30.08,West,265,2.0,4.0,84,0.00,,,0.00,weatherlink.com 1.10,2013-03-03 02:04:00,
2013-03-02 18:19:00,44.6,40.0,30.09,West,266,0.0,3.0,85,0.00,,,0.00,weatherlink.com 1.10,2013-03-03 02:19:00,
2013-03-02 18:34:00,44.0,40.0,30.09,ESE,111,0.0,3.0,86,0.00,,,0.00,weatherlink.com 1.10,2013-03-03 02:34:00,
2013-03-02 18:49:00,43.1,40.0,30.10,South,187,1.0,6.0,88,0.00,,,0.00,weatherlink.com 1.10,2013-03-03 02:49:00,
2013-03-02 19:04:00,42.4,40.0,30.11,WSW,254,0.0,5.0,91,0.00,,,0.00,weatherlink.com 1.10,2013-03-03 03:04:00,
2013-03-02 19:19:00,42.1,40.0,30.11,NNW,340,0.0,5.0,91,0.00,,,0.00,weatherlink.com 1.10,2013-03-03 03:19:00,
2013-03-02 19:34:00,41.8,39.0,30.11,NE,46,0.0,6.0,89,0.00,,,0.00,weatherlink.com 1.10,2013-03-03 03:34:00,
2013-03-02 19:49:00,41.6,39.0,30.12,SSE,159,0.0,6.0,90,0.00,,,0.00,weatherlink.com 1.10,2013-03-03 03:49:00,
2013-03-02 20:04:00,40.8,38.0,30.14,SE,142,0.0,5.0,89,0.00,,,0.00,weatherlink.com 1.10,2013-03-03 04:04:00,
2013-03-02 20:20:00,41.1,38.0,30.14,South,190,1.0,7.0,87,0.00,,,0.00,weatherlink.com 1.10,2013-03-03 04:20:00,
2013-03-02 20:35:00,41.5,37.0,30.14,SSW,206,2.0,6.0,84,0.00,,,0.00,weatherlink.com 1.10,2013-03-03 04:35:00,
2013-03-02 20:50:00,41.8,37.0,30.14,SW,231,0.0,8.0,83,0.00,,,0.00,weatherlink.com 1.10,2013-03-03 04:50:00,
2013-03-02 21:05:00,41.5,37.0,30.14,WNW,294,5.0,7.0,84,0.00,,,0.00,weatherlink.com 1.10,2013-03-03 05:05:00,
2013-03-02 21:20:00,41.4,37.0,30.15,WSW,240,0.0,7.0,85,0.00,,,0.00,weatherlink.com 1.10,2013-03-03 05:20:00,
2013-03-02 21:35:00,41.2,37.0,30.15,SW,223,0.0,3.0,86,0.00,,,0.00,weatherlink.com 1.10,2013-03-03 05:35:00,
2013-03-02 21:50:00,41.0,38.0,30.16,West,262,0.0,3.0,89,0.00,,,0.00,weatherlink.com 1.10,2013-03-03 05:50:00,
2013-03-02 22:05:00,40.4,38.0,30.16,West,262,0.0,1.0,90,0.00,,,0.00,weatherlink.com 1.10,2013-03-03 06:05:00,
2013-03-02 22:20:00,39.6,38.0,30.15,West,262,0.0,2.0,92,0.00,,,0.00,weatherlink.com 1.10,2013-03-03 06:20:00,
2013-03-02 22:35:00,39.1,37.0,30.16,SSW,208,0.0,3.0,93,0.00,,,0.00,weatherlink.com 1.10,2013-03-03 06:35:00,
2013-03-02 22:50:00,38.8,37.0,30.16,ESE,117,1.0,3.0,93,0.00,,,0.00,weatherlink.com 1.10,2013-03-03 06:50:00,
2013-03-02 23:05:00,38.2,36.0,30.15,SE,146,0.0,3.0,93,0.00,,,0.00,weatherlink.com 1.10,2013-03-03 07:05:00,
2013-03-02 23:20:00,38.3,37.0,30.15,SSW,209,2.0,6.0,93,0.00,,,0.00,weatherlink.com 1.10,2013-03-03 07:20:00,
2013-03-02 23:35:00,38.8,36.0,30.15,West,274,1.0,5.0,91,0.00,,,0.00,weatherlink.com 1.10,2013-03-03 07:35:00,
2013-03-02 23:50:00,39.4,37.0,30.15,SE,142,0.0,7.0,89,0.00,,,0.00,weatherlink.com 1.10,2013-03-03 07:50:00,